SCP
0 0 0 0 0 0 0 0 0 0 0 0 0 0 0 -0 0 0 0 0 0 0 0 -0 -0 0 0 0 0 0 0 0 0 0 0 0 0 0 0 0 0 0 0 0 0 0 0 0 0 0 0 0 0 0
0 0 0 0 0 0 0 0 0 0 0 0 0 0 0 -0 0 0 0 0 0 0 0 -0 -0 0 0 0 0 0 0 0 0 0 0 0 0 0 0 0 0 0 0 0 0 0 0 0 0 0 0 0 0 0
0 0 0 0 0 0 0 0 0 0 0 0 0 0 0 0 -0 0 0 0 0 0 0 0 -0 0 0 0 0 0 0 0 0 0 0 0 0 0 0 0 0 0 0 0 0 0 0 0 0 0 0 0 0 0
0 0 0 0 0 0 0 0 0 0 0 0 0 0 0 0 -0 0 0 0 0 0 0 0 -0 -0 0 0 0 0 0 0 0 0 0 0 0 0 0 0 0 0 0 0 0 0 0 0 0 0 0 0 0 0
0 0 0 0 0 0 0 0 0 0 0 0 0 0 0 0 0 0 0 0 0 0 0 0 0 -0 0 0 0 0 0 0 0 0 0 0 0 0 0 0 -0 0 0 0 0 0 0 0 0 0 0 0 0 0
0 0 0 0 0 0 0 0 0 0 0 0 0 0 0 0 0 0 0 0 0 0 0 0 0 0 0 -0 0 0 0 0 0 0 0 0 0 0 0 0 0 -0 0 -0 0 0 0 0 0 0 0 0 0 0
0 0 0 0 0 0 0 0 0 0 0 0 0 0 0 0 0 0 0 0 0 0 0 0 0 0 0 -0 -0 -0 0 0 0 0 0 0 0 0 -0 0 0 0 0 0 0 0 0 0 0 0 0 0 0 0
0 0 0 0 0 0 0 0 0 0 0 0 0 0 0 0 0 0 0 0 0 0 0 0 0 0 -0 -0 -0 -0 -0 0 0 0 0 0 0 0 -0 -0 0 0 0 0 0 0 0 0 0 0 0 0 0 0
0 0 0 0 0 0 0 0 0 0 0 0 0 0 0 0 0 0 0 0 0 0 0 0 0 0 -0 -0 0 -0 -0 0 -0 0 0 0 0 0 0 0 0 0 0 0 0 -0 0 0 0 0 0 0 0 0
0 0 0 0 0 0 0 0 0 0 0 0 0 0 0 0 0 0 0 0 0 0 0 0 0 0 -0 -0 -0 -0 0 0 0 0 0 -0 0 0 0 0 0 -0 -0 0 0 0 0 0 0 0 0 0 0 0
0 0 0 0 0 0 0 0 0 0 0 0 0 0 0 0 0 0 0 0 0 0 0 0 0 0 0 0 0 -0 0 0 0 0 0 0 0 0 0 0 0 0 0 0 0 0 0 0 0 0 0 0 0 0
0 0 0 0 0 0 0 0 0 0 0 0 0 0 0 0 0 0 0 0 0 0 0 0 0 0 0 0 0 0 0 0 0 0 0 0 0 0 0 0 0 0 0 0 0 0 0 0 0 0 0 0 0 0
0 0 0 0 0 0 0 0 0 0 0 0 0 0 0 0 0 0 0 0 0 0 0 0 0 0 0 0 0 0 0 0 0 0 0 0 0 0 0 0 0 0 0 0 0 0 0 0 0 0 0 0 0 0
0 0 0 0 0 0 0 0 0 0 0 0 0 0 0 0 0 0 0 0 0 0 0 0 0 0 0 0 0 0 0 0 0 0 0 0 0 -0 0 0 -0 0 0 0 0 0 0 0 0 0 0 0 0 0
0 0 0 0 0 0 0 0 0 0 0 0 0 0 0 0 0 0 0 0 0 0 0 0 0 0 0 0 0 0 0 0 0 0 0 0 0 0 0 0 -0 0 -0 0 0 0 0 0 0 0 0 0 0 0
0 0 0 0 -0 0 0 0 0 0 0 0 0 0 0 0 0 0 0 0 0 0 0 0 0 0 0 0 0 0 0 0 0 0 0 0 -0 0 0 -0 0 -0 -0 0 0 0 0 0 0 1 0 0 0 0
0 0 0 -0 -0 -0 0 0 0 0 0 0 0 0 0 0 0 0 0 0 0 0 0 0 0 0 0 0 0 0 0 0 0 0 0 0 -0 0 0 0 0 0 0 -0 -0 0 0 0 0 0 0 0 0 0
0 0 -0 -0 -0 0 0 0 0 0 -0 0 0 0 0 0 0 0 0 0 0 0 0 0 0 0 0 0 0 0 0 0 0 0 0 0 0 0 0 0 -0 -0 -0 0 -0 -0 0 0 0 0 0 0 0 0
0 0 0 0 0 0 0 0 0 0 0 0 0 0 0 0 0 0 0 0 0 0 0 0 0 0 0 0 0 0 0 0 0 0 0 0 0 0 0 0 0 -0 -0 -0 0 0 0 0 0 0 0 0 0 0
0 0 0 0 0 0 0 0 0 0 0 0 0 0 0 0 0 0 0 0 0 0 0 0 -0 0 0 0 0 0 0 0 0 0 -0 0 0 0 0 0 0 0 0 -0 -0 -0 -0 0 0 0 0 0 0 0
0 0 0 0 0 0 0 0 0 0 0 0 0 0 0 0 0 0 0 0 0 0 0 0 0 0 0 0 0 0 0 0 0 0 -0 -0 0 -0 -0 0 0 0 0 0 0 0 -0 0 0 0 0 0 0 0
0 -0 0 0 0 0 0 0 0 0 0 -0 0 0 0 0 0 0 0 0 0 0 0 0 0 0 0 0 0 0 0 0 0 0 0 0 -0 -0 -0 -0 -0 -0 0 0 0 0 0 0 -0 0 0 0 0 0
-0 0 0 0 0 0 0 0 0 0 0 0 0 0 -0 0 0 0 0 0 0 0 0 0 0 0 -0 0 0 0 0 0 0 0 0 0 0 0 -0 -0 -0 -0 -0 0 0 0 0 -0 -0 -0 0 -0 -0 0
0 0 0 0 0 0 0 0 0 0 0 0 0 0 0 0 0 0 0 0 0 0 0 0 0 0 0 0 0 0 0 0 0 0 0 0 0 0 0 -0 -0 -0 -0 0 0 0 0 0 -0 0 0 0 0 0
0 0 0 0 0 0 0 0 0 0 0 0 0 0 0 -0 -0 -0 -0 0 0 0 0 0 0 0 -0 0 0 0 0 0 0 0 0 0 0 0 0 0 0 0 0 0 0 0 0 0 0 0 0 0 0 0
0 0 0 0 0 0 0 0 0 0 0 0 0 -0 -0 0 0 0 0 0 0 0 0 0 0 0 0 0 0 0 -0 0 0 0 0 0 0 0 0 0 0 0 0 0 0 0 0 0 0 0 0 0 0 0
0 0 0 0 0 0 0 0 0 0 0 0 0 0 0 0 0 0 0 0 0 0 0 0 0 0 0 0 0 0 0 -0 -0 -0 0 0 0 0 0 0 0 0 0 0 0 0 0 0 0 0 0 0 0 0
0 0 0 0 0 0 0 0 0 0 0 0 0 0 0 0 0 0 0 0 0 0 0 0 0 0 0 0 0 0 0 0 -0 0 0 0 0 0 0 0 0 0 0 0 0 0 0 0 0 0 0 0 0 0
0 0 0 0 0 0 0 0 0 0 0 0 0 0 0 0 0 0 0 0 0 0 0 0 0 0 0 0 0 0 0 0 -0 0 0 0 0 0 0 0 0 0 0 0 0 0 0 0 0 0 0 0 0 0
0 0 0 0 0 0 0 0 0 0 0 0 0 0 0 0 0 0 0 0 0 0 0 0 0 0 0 0 0 0 0 0 -0 -0 -0 -0 -0 0 0 0 0 0 0 0 0 0 0 0 0 0 0 -0 -0 -0
0 0 0 0 0 0 0 0 0 0 0 0 0 0 0 0 0 0 0 0 0 0 0 0 0 0 0 0 0 0 0 0 0 -0 -0 -0 -0 0 0 0 0 0 0 0 0 0 0 0 0 0 0 0 0 0
0 0 0 0 0 0 0 0 0 0 0 0 0 0 0 0 0 0 0 0 0 0 0 0 0 0 0 0 0 0 0 0 0 0 0 -0 0 0 0 0 0 0 0 0 0 0 0 0 0 0 0 0 0 0
0 0 0 0 0 0 0 0 0 0 0 0 0 0 0 0 0 0 0 0 0 0 0 0 0 0 0 0 0 0 0 0 0 0 0 0 0 0 0 0 0 0 0 0 0 0 0 0 0 0 0 0 0 0
Wind_Speed_500mb
64 64 62 60 58 56 54 53 51 49 48 47 43 40 34 36 25 24 18 17 27 16 49 57 60 43 24 10 4 25 21 13 12 12 8 6 5 7 6 6 7 4 4 5 6 8 6 58 12 15 16 34 39 43
70 69 66 61 59 57 55 52 50 49 49 47 45 42 36 33 27 22 21 8 17 33 37 38 43 40 52 62 42 13 8 10 5 6 5 4 5 6 8 3 9 6 7 5 3 8 8 22 23 31 38 33 45 50
74 72 67 61 57 56 53 51 49 48 48 45 42 39 33 30 29 23 24 17 19 33 53 45 17 11 17 17 13 11 10 10 4 22 3 2 4 4 5 5 7 10 11 4 5 5 25 10 41 64 63 53 52 56
77 73 65 60 55 53 50 47 45 45 46 43 39 36 29 24 27 23 24 18 17 11 9 14 8 35 35 32 36 37 34 34 31 21 5 1 1 3 4 6 2 6 13 5 6 13 33 12 64 75 77 75 73 75
77 70 64 59 54 50 48 46 43 43 43 42 39 34 28 21 23 23 23 27 22 19 8 26 55 7 11 16 25 22 28 32 33 4 3 4 6 3 6 4 5 8 4 4 2 14 9 36 66 63 69 74 69 75
75 67 63 57 51 48 48 47 44 42 42 40 37 32 28 22 16 17 9 12 18 32 9 7 20 23 14 11 37 33 28 27 20 12 9 10 18 4 4 6 13 7 8 6 6 39 40 55 53 49 61 69 62 65
72 65 60 52 48 48 48 46 43 41 40 39 37 32 21 15 13 16 8 12 13 17 7 9 11 11 23 10 13 40 33 33 30 17 15 18 25 15 5 11 27 49 61 68 67 50 54 43 48 65 60 64 50 57
70 60 54 49 46 45 45 46 47 45 40 34 27 17 8 3 12 18 21 17 21 12 7 5 7 14 18 15 10 4 15 18 20 23 9 9 8 12 10 29 62 77 68 74 80 62 54 63 63 60 56 53 53 61
65 55 49 45 45 44 44 45 47 48 40 24 20 13 9 5 3 5 3 8 30 11 4 6 4 6 13 6 8 8 4 1 12 7 11 13 8 11 21 40 60 58 37 41 44 45 46 37 51 55 50 40 47 56
60 49 43 44 45 46 45 48 50 48 28 21 13 6 7 9 3 1 3 3 5 7 8 6 6 6 13 13 5 12 8 4 4 9 10 8 25 70 72 67 59 43 40 46 57 54 57 62 59 61 50 46 45 50
56 47 37 39 44 48 50 54 54 49 22 12 10 6 8 2 2 3 1 1 4 5 8 8 12 5 8 4 3 8 5 4 4 5 4 6 8 19 61 77 86 86 76 74 70 70 66 60 58 57 61 55 45 48
52 44 33 30 34 43 50 54 55 45 23 12 8 5 2 2 2 3 2 3 5 5 5 5 8 12 7 6 5 3 4 3 8 13 6 7 7 17 20 29 35 33 49 69 75 79 81 79 72 64 64 61 47 45
48 41 29 25 30 41 48 53 53 44 28 13 12 7 3 4 5 8 11 4 6 8 9 9 3 5 3 4 5 4 4 6 17 5 6 8 26 57 69 77 79 72 47 38 50 68 74 79 75 73 69 52 47 50
46 37 25 21 26 38 43 45 46 40 17 12 12 13 9 10 7 5 10 11 20 6 11 9 3 5 5 3 4 4 3 4 4 4 8 14 70 77 55 53 73 59 59 51 49 55 63 71 73 59 44 44 46 45
37 29 18 19 22 31 33 36 37 36 11 11 10 10 7 18 26 35 35 25 16 5 16 6 4 1 4 3 2 5 5 6 1 7 7 48 62 62 56 31 24 48 65 57 49 51 52 57 54 53 44 40 39 43
34 25 20 22 21 19 23 24 25 22 10 9 13 9 27 14 29 44 49 44 48 12 12 4 3 4 4 2 4 8 10 8 5 9 32 40 69 65 68 56 26 4 30 38 36 43 41 39 43 48 40 36 33 35
31 28 24 19 20 10 12 15 13 11 10 7 6 16 15 10 16 38 55 51 39 36 6 6 11 10 7 8 4 2 16 5 46 48 50 39 70 75 77 66 61 44 31 20 23 31 35 31 34 41 31 23 30 31
31 21 16 17 15 5 7 6 5 8 6 3 5 14 22 34 41 38 53 61 35 32 14 6 10 13 11 13 10 11 33 44 47 56 67 77 77 64 68 85 92 84 74 63 52 55 47 41 51 56 45 39 39 42
28 14 11 18 16 8 4 3 4 4 0 7 12 23 29 39 44 43 43 49 54 44 19 11 11 8 8 13 20 40 45 39 36 47 58 67 71 75 74 75 70 74 74 69 62 55 56 55 50 42 29 30 36 44
19 10 17 17 12 5 3 2 4 4 4 6 21 19 24 28 41 47 51 46 35 38 31 12 9 24 16 41 51 48 41 35 39 51 51 60 68 71 77 75 69 69 64 59 54 54 51 48 51 47 39 40 33 8
16 17 13 11 7 6 7 10 8 9 9 1 4 7 19 39 48 51 50 39 36 18 16 31 38 44 54 60 59 50 46 49 49 49 48 58 62 64 64 64 73 81 78 70 63 48 44 54 38 23 20 31 29 18
18 13 11 10 6 3 1 9 6 7 8 5 28 14 8 9 21 28 24 30 15 18 30 45 39 51 60 62 58 48 33 38 43 50 52 51 62 71 73 70 65 57 53 63 68 60 50 34 38 41 41 30 10 8
14 11 6 5 4 3 3 9 3 6 3 3 8 7 2 1 5 13 11 18 12 33 56 53 40 43 46 43 43 46 34 30 42 48 52 54 52 54 60 65 66 67 68 58 35 45 55 50 28 20 29 26 29 38
9 8 7 8 10 7 9 5 3 4 4 3 2 7 5 5 10 10 5 17 23 36 45 48 40 33 38 42 42 38 32 28 28 31 38 41 45 47 46 50 53 55 58 53 52 42 12 33 41 32 37 36 39 40
5 11 10 9 10 10 9 7 4 7 6 6 5 7 8 7 5 5 3 10 14 30 39 36 33 31 36 39 34 32 30 29 34 41 37 31 29 26 30 33 39 43 45 49 51 50 47 32 29 38 39 39 40 44
8 5 5 4 8 6 7 7 8 5 5 6 7 7 6 7 4 1 6 12 21 32 30 24 18 19 27 31 30 27 28 28 29 35 34 30 30 30 30 32 34 34 30 32 34 39 36 36 36 36 44 45 43 41
2 6 3 5 7 12 10 5 3 11 6 4 3 4 4 6 1 5 4 12 23 31 14 11 12 15 17 23 26 24 25 34 45 36 31 26 24 30 34 36 38 36 29 23 20 26 24 25 27 30 35 37 37 37
3 7 4 7 6 5 5 4 4 3 5 8 8 4 7 8 8 6 5 21 28 30 11 9 9 13 14 17 19 20 25 30 35 38 39 41 36 35 32 29 29 27 26 20 17 13 17 19 20 21 21 24 27 26
7 6 5 6 4 3 3 3 3 2 5 6 9 6 7 7 18 11 16 27 14 5 8 3 4 6 9 16 25 27 28 36 45 51 51 53 53 52 47 37 27 26 22 23 22 21 20 20 21 21 22 23 22 21
7 20 8 5 4 4 2 2 9 10 10 11 11 17 18 15 8 9 11 7 3 2 1 1 2 5 13 20 25 22 23 29 38 43 44 41 36 36 34 35 29 28 28 26 25 23 21 21 23 24 27 29 31 35
7 21 6 7 5 5 17 24 28 29 32 28 18 23 17 12 10 7 5 0 6 11 10 7 3 7 16 22 19 16 17 18 28 35 38 30 26 30 28 27 28 28 26 24 21 23 25 28 29 30 30 30 30 27
16 21 17 8 7 32 34 28 18 9 18 13 13 12 14 14 9 10 8 6 13 17 9 8 13 10 10 14 16 13 13 13 23 31 30 29 30 24 24 24 26 25 28 30 29 30 31 31 30 32 34 30 26 24
10 8 13 15 17 22 22 20 14 10 10 11 12 18 17 11 5 9 8 5 16 9 7 5 2 2 5 14 19 13 8 15 20 21 23 27 29 27 21 19 23 20 21 21 23 22 22 22 25 25 25 26 27 25
Wind_Direction_500mb
331 329 327 323 320 317 314 313 312 311 310 311 313 313 310 307 299 297 311 258 228 252 273 280 272 272 259 244 275 309 338 356 342 28 19 338 352 4 328 10 351 51 25 353 313 82 70 346 30 65 306 319 338 343
334 331 327 323 322 320 315 312 312 312 310 309 308 308 306 295 299 287 298 263 233 239 255 278 278 256 264 276 266 275 283 300 298 27 350 343 341 343 338 2 351 32 113 231 26 134 192 25 58 11 356 326 346 341
335 333 330 326 324 323 320 314 312 312 311 311 312 311 306 294 294 270 286 289 281 255 278 273 289 304 259 238 243 248 274 255 233 350 255 276 346 354 6 2 311 356 34 34 40 333 337 259 7 1 358 353 349 352
338 335 333 331 329 325 324 320 316 314 313 314 316 313 307 289 283 269 272 280 263 277 274 288 273 297 288 269 261 272 267 263 274 312 318 313 295 344 282 277 268 254 339 328 347 333 353 282 344 343 350 359 4 358
340 338 339 338 334 330 329 326 323 318 317 318 317 317 302 295 279 279 267 273 259 229 274 291 305 107 310 242 226 227 240 245 258 229 114 249 263 330 317 327 255 216 219 80 225 303 260 305 327 340 347 355 359 352
343 342 345 345 340 336 335 334 330 326 322 319 319 316 309 296 290 265 246 244 246 215 269 292 309 295 353 287 219 214 231 236 219 199 203 221 221 180 277 268 267 234 289 327 301 321 318 314 320 336 338 347 349 351
344 344 351 351 347 348 345 344 341 336 331 327 326 320 313 286 243 220 212 183 179 197 260 290 287 305 340 338 230 224 237 248 233 217 214 229 235 197 172 246 260 275 283 287 292 302 300 300 310 320 326 340 346 352
345 347 355 353 354 356 356 357 354 346 337 337 342 352 29 185 213 241 250 225 192 194 226 275 276 314 10 359 344 230 210 225 229 231 212 196 210 195 243 230 249 260 262 271 278 281 281 294 298 300 311 335 337 346
345 348 357 353 354 355 357 353 354 349 344 353 353 24 53 59 218 300 235 234 218 209 237 232 260 273 356 19 343 300 271 184 238 197 211 203 201 220 228 216 231 245 243 257 270 274 280 274 291 296 310 322 329 333
344 346 355 353 354 355 353 351 353 350 350 355 21 39 23 3 14 217 125 97 170 212 227 255 245 279 351 352 18 1 310 261 305 247 196 207 243 246 250 251 253 243 243 246 252 258 267 270 270 280 292 300 311 317
343 343 347 348 349 352 354 354 354 353 1 18 21 40 341 41 318 344 67 209 235 251 225 251 235 256 294 270 281 178 295 301 262 301 215 254 272 242 253 249 249 246 243 242 245 254 259 268 278 276 277 284 300 305
341 342 343 346 350 353 356 356 355 358 7 26 13 23 331 336 349 293 310 268 228 270 227 204 253 222 256 255 263 238 266 214 253 333 251 255 262 278 290 289 280 277 248 241 244 248 255 258 253 261 268 274 285 295
339 341 338 337 342 345 354 353 356 4 12 21 14 14 336 350 336 20 332 305 282 204 213 212 218 238 235 228 278 291 275 255 334 252 262 261 286 283 275 271 268 268 254 247 238 239 250 254 251 250 259 263 273 284
334 338 331 334 342 343 354 353 357 3 14 20 8 9 23 7 339 320 307 302 322 215 187 174 208 221 190 148 345 265 293 284 278 268 265 290 305 309 315 285 245 235 239 239 240 243 252 243 243 242 248 259 269 271
339 340 331 334 332 336 350 357 3 5 26 38 21 22 352 327 336 328 338 340 353 328 143 155 238 56 34 35 336 294 293 272 302 279 266 318 345 360 11 22 191 214 227 237 251 255 235 219 223 230 254 264 263 264
346 346 343 345 351 338 341 352 2 11 22 44 37 358 340 356 360 14 9 5 8 24 186 189 198 237 84 127 334 347 336 331 273 322 326 1 357 16 30 39 37 250 228 236 247 212 196 193 213 233 246 247 248 251
340 336 333 348 353 3 342 345 358 12 30 49 343 12 19 354 346 16 23 17 11 3 1 13 17 30 307 358 342 333 11 4 30 26 10 52 30 28 33 43 50 61 82 113 146 167 174 184 192 173 169 165 212 228
341 327 336 352 352 310 323 349 358 0 19 34 24 28 47 46 44 40 37 34 32 17 11 32 352 24 20 21 22 354 21 39 45 35 27 30 31 34 34 37 45 44 50 62 90 99 100 116 117 107 115 118 125 148
344 338 331 336 339 336 299 243 222 230 271 65 97 88 75 66 61 60 53 48 49 50 42 42 55 12 346 341 347 0 18 26 27 38 47 45 50 45 44 43 47 52 53 47 52 52 76 90 93 97 105 111 75 65
350 344 324 335 355 3 343 347 295 279 183 169 141 98 83 73 70 65 60 51 49 45 38 35 17 12 25 33 42 39 43 56 55 57 50 50 50 49 44 43 40 44 55 54 57 48 60 71 70 68 81 91 98 80
348 360 19 24 36 31 25 358 22 19 7 306 226 37 80 69 54 47 43 45 47 29 19 3 20 46 53 50 50 54 65 67 66 60 57 55 51 49 44 38 43 46 44 42 44 52 45 54 54 72 87 85 89 91
4 9 28 42 21 328 31 360 357 12 90 63 62 61 83 6 4 10 31 46 42 22 14 23 44 52 48 42 42 46 59 63 62 60 56 48 45 48 49 46 42 39 33 34 40 45 48 56 64 67 59 61 121 149
348 349 5 352 307 295 314 349 48 55 99 118 120 96 227 221 323 32 53 10 7 26 28 38 61 58 33 32 36 38 46 65 62 61 63 64 57 49 45 47 46 44 40 33 24 25 38 52 68 76 78 81 90 91
13 18 7 4 360 315 319 24 17 55 52 19 99 103 72 64 32 71 45 355 7 21 17 33 45 55 51 50 53 48 53 68 83 70 58 59 60 57 49 45 43 43 39 37 41 42 12 30 44 80 78 82 81 75
16 14 9 17 13 344 343 353 38 51 39 18 59 72 51 48 63 58 357 286 320 357 12 34 50 54 55 57 59 54 51 50 69 69 58 54 53 47 46 44 44 42 38 38 36 39 46 54 66 77 83 83 82 82
64 342 36 7 308 3 334 344 1 29 57 71 56 75 66 85 84 167 253 298 338 8 22 41 53 68 60 57 56 48 50 46 39 44 39 36 43 47 44 40 39 37 35 36 37 41 50 50 62 86 88 91 87 88
116 272 312 292 301 310 303 298 15 65 66 70 62 66 79 73 144 239 336 7 15 20 42 85 68 75 71 65 59 56 38 20 24 32 33 29 34 44 40 34 29 19 9 20 21 32 51 52 51 56 65 71 68 65
194 217 197 2 296 279 285 341 57 60 126 134 108 79 136 165 198 170 51 18 359 351 133 92 48 14 27 44 40 30 27 21 13 17 30 32 28 21 18 14 16 13 32 45 60 56 56 65 63 67 63 68 66 58
218 212 226 288 281 285 18 97 135 107 145 148 128 170 166 121 131 93 31 9 352 177 166 147 91 343 354 15 7 3 12 15 17 24 27 22 15 16 13 18 23 37 55 53 61 56 51 52 57 58 56 53 47 34
234 188 196 227 199 195 185 151 142 137 126 118 101 111 112 126 108 17 335 338 141 93 149 157 143 357 17 12 3 1 9 21 27 28 27 24 21 14 20 28 46 48 38 36 41 46 48 53 56 50 43 52 64 59
180 180 201 199 212 168 145 129 123 122 128 122 134 139 146 154 101 91 81 125 44 16 351 346 45 35 15 16 19 9 6 22 34 26 21 23 24 24 23 24 28 27 22 26 43 58 66 73 72 70 68 60 53 55
195 194 180 142 129 153 152 147 140 142 154 152 154 169 164 186 172 172 197 324 349 347 339 354 354 15 7 18 20 8 358 32 31 15 23 23 26 24 19 21 31 43 46 51 57 58 55 54 56 55 45 44 42 37
221 175 156 125 143 178 191 172 168 136 165 187 197 182 190 196 196 184 187 353 327 356 40 28 295 253 2 22 25 26 51 37 29 26 22 22 27 30 21 23 30 38 37 30 30 28 32 37 35 31 26 22 16 12
Wind_Speed_850mb
64 64 62 60 58 56 54 53 51 49 48 47 43 40 34 36 25 24 18 17 27 16 49 57 60 43 24 10 4 25 21 13 12 12 8 6 5 7 6 6 7 4 4 5 6 8 6 58 12 15 16 34 39 43
70 69 66 61 59 57 55 52 50 49 49 47 45 42 36 33 27 22 21 8 17 33 37 38 43 40 52 62 42 13 8 10 5 6 5 4 5 6 8 3 9 6 7 5 3 8 8 22 23 31 38 33 45 50
74 72 67 61 57 56 53 51 49 48 48 45 42 39 33 30 29 23 24 17 19 33 53 45 17 11 17 17 13 11 10 10 4 22 3 2 4 4 5 5 7 10 11 4 5 5 25 10 41 64 63 53 52 56
77 73 65 60 55 53 50 47 45 45 46 43 39 36 29 24 27 23 24 18 17 11 9 14 8 35 35 32 36 37 34 34 31 21 5 1 1 3 4 6 2 6 13 5 6 13 33 12 64 75 77 75 73 75
77 70 64 59 54 50 48 46 43 43 43 42 39 34 28 21 23 23 23 27 22 19 8 26 55 7 11 16 25 22 28 32 33 4 3 4 6 3 6 4 5 8 4 4 2 14 9 36 66 63 69 74 69 75
75 67 63 57 51 48 48 47 44 42 42 40 37 32 28 22 16 17 9 12 18 32 9 7 20 23 14 11 37 33 28 27 20 12 9 10 18 4 4 6 13 7 8 6 6 39 40 55 53 49 61 69 62 65
72 65 60 52 48 48 48 46 43 41 40 39 37 32 21 15 13 16 8 12 13 17 7 9 11 11 23 10 13 40 33 33 30 17 15 18 25 15 5 11 27 49 61 68 67 50 54 43 48 65 60 64 50 57
70 60 54 49 46 45 45 46 47 45 40 34 27 17 8 3 12 18 21 17 21 12 7 5 7 14 18 15 10 4 15 18 20 23 9 9 8 12 10 29 62 77 68 74 80 62 54 63 63 60 56 53 53 61
65 55 49 45 45 44 44 45 47 48 40 24 20 13 9 5 3 5 3 8 30 11 4 6 4 6 13 6 8 8 4 1 12 7 11 13 8 11 21 40 60 58 37 41 44 45 46 37 51 55 50 40 47 56
60 49 43 44 45 46 45 48 50 48 28 21 13 6 7 9 3 1 3 3 5 7 8 6 6 6 13 13 5 12 8 4 4 9 10 8 25 70 72 67 59 43 40 46 57 54 57 62 59 61 50 46 45 50
56 47 37 39 44 48 50 54 54 49 22 12 10 6 8 2 2 3 1 1 4 5 8 8 12 5 8 4 3 8 5 4 4 5 4 6 8 19 61 77 86 86 76 74 70 70 66 60 58 57 61 55 45 48
52 44 33 30 34 43 50 54 55 45 23 12 8 5 2 2 2 3 2 3 5 5 5 5 8 12 7 6 5 3 4 3 8 13 6 7 7 17 20 29 35 33 49 69 75 79 81 79 72 64 64 61 47 45
48 41 29 25 30 41 48 53 53 44 28 13 12 7 3 4 5 8 11 4 6 8 9 9 3 5 3 4 5 4 4 6 17 5 6 8 26 57 69 77 79 72 47 38 50 68 74 79 75 73 69 52 47 50
46 37 25 21 26 38 43 45 46 40 17 12 12 13 9 10 7 5 10 11 20 6 11 9 3 5 5 3 4 4 3 4 4 4 8 14 70 77 55 53 73 59 59 51 49 55 63 71 73 59 44 44 46 45
37 29 18 19 22 31 33 36 37 36 11 11 10 10 7 18 26 35 35 25 16 5 16 6 4 1 4 3 2 5 5 6 1 7 7 48 62 62 56 31 24 48 65 57 49 51 52 57 54 53 44 40 39 43
34 25 20 22 21 19 23 24 25 22 10 9 13 9 27 14 29 44 49 44 48 12 12 4 3 4 4 2 4 8 10 8 5 9 32 40 69 65 68 56 26 4 30 38 36 43 41 39 43 48 40 36 33 35
31 28 24 19 20 10 12 15 13 11 10 7 6 16 15 10 16 38 55 51 39 36 6 6 11 10 7 8 4 2 16 5 46 48 50 39 70 75 77 66 61 44 31 20 23 31 35 31 34 41 31 23 30 31
31 21 16 17 15 5 7 6 5 8 6 3 5 14 22 34 41 38 53 61 35 32 14 6 10 13 11 13 10 11 33 44 47 56 67 77 77 64 68 85 92 84 74 63 52 55 47 41 51 56 45 39 39 42
28 14 11 18 16 8 4 3 4 4 0 7 12 23 29 39 44 43 43 49 54 44 19 11 11 8 8 13 20 40 45 39 36 47 58 67 71 75 74 75 70 74 74 69 62 55 56 55 50 42 29 30 36 44
19 10 17 17 12 5 3 2 4 4 4 6 21 19 24 28 41 47 51 46 35 38 31 12 9 24 16 41 51 48 41 35 39 51 51 60 68 71 77 75 69 69 64 59 54 54 51 48 51 47 39 40 33 8
16 17 13 11 7 6 7 10 8 9 9 1 4 7 19 39 48 51 50 39 36 18 16 31 38 44 54 60 59 50 46 49 49 49 48 58 62 64 64 64 73 81 78 70 63 48 44 54 38 23 20 31 29 18
18 13 11 10 6 3 1 9 6 7 8 5 28 14 8 9 21 28 24 30 15 18 30 45 39 51 60 62 58 48 33 38 43 50 52 51 62 71 73 70 65 57 53 63 68 60 50 34 38 41 41 30 10 8
14 11 6 5 4 3 3 9 3 6 3 3 8 7 2 1 5 13 11 18 12 33 56 53 40 43 46 43 43 46 34 30 42 48 52 54 52 54 60 65 66 67 68 58 35 45 55 50 28 20 29 26 29 38
9 8 7 8 10 7 9 5 3 4 4 3 2 7 5 5 10 10 5 17 23 36 45 48 40 33 38 42 42 38 32 28 28 31 38 41 45 47 46 50 53 55 58 53 52 42 12 33 41 32 37 36 39 40
5 11 10 9 10 10 9 7 4 7 6 6 5 7 8 7 5 5 3 10 14 30 39 36 33 31 36 39 34 32 30 29 34 41 37 31 29 26 30 33 39 43 45 49 51 50 47 32 29 38 39 39 40 44
8 5 5 4 8 6 7 7 8 5 5 6 7 7 6 7 4 1 6 12 21 32 30 24 18 19 27 31 30 27 28 28 29 35 34 30 30 30 30 32 34 34 30 32 34 39 36 36 36 36 44 45 43 41
2 6 3 5 7 12 10 5 3 11 6 4 3 4 4 6 1 5 4 12 23 31 14 11 12 15 17 23 26 24 25 34 45 36 31 26 24 30 34 36 38 36 29 23 20 26 24 25 27 30 35 37 37 37
3 7 4 7 6 5 5 4 4 3 5 8 8 4 7 8 8 6 5 21 28 30 11 9 9 13 14 17 19 20 25 30 35 38 39 41 36 35 32 29 29 27 26 20 17 13 17 19 20 21 21 24 27 26
7 6 5 6 4 3 3 3 3 2 5 6 9 6 7 7 18 11 16 27 14 5 8 3 4 6 9 16 25 27 28 36 45 51 51 53 53 52 47 37 27 26 22 23 22 21 20 20 21 21 22 23 22 21
7 20 8 5 4 4 2 2 9 10 10 11 11 17 18 15 8 9 11 7 3 2 1 1 2 5 13 20 25 22 23 29 38 43 44 41 36 36 34 35 29 28 28 26 25 23 21 21 23 24 27 29 31 35
7 21 6 7 5 5 17 24 28 29 32 28 18 23 17 12 10 7 5 0 6 11 10 7 3 7 16 22 19 16 17 18 28 35 38 30 26 30 28 27 28 28 26 24 21 23 25 28 29 30 30 30 30 27
16 21 17 8 7 32 34 28 18 9 18 13 13 12 14 14 9 10 8 6 13 17 9 8 13 10 10 14 16 13 13 13 23 31 30 29 30 24 24 24 26 25 28 30 29 30 31 31 30 32 34 30 26 24
10 8 13 15 17 22 22 20 14 10 10 11 12 18 17 11 5 9 8 5 16 9 7 5 2 2 5 14 19 13 8 15 20 21 23 27 29 27 21 19 23 20 21 21 23 22 22 22 25 25 25 26 27 25
Wind_Direction_850mb
331 329 327 323 320 317 314 313 312 311 310 311 313 313 310 307 299 297 311 258 228 252 273 280 272 272 259 244 275 309 338 356 342 28 19 338 352 4 328 10 351 51 25 353 313 82 70 346 30 65 306 319 338 343
334 331 327 323 322 320 315 312 312 312 310 309 308 308 306 295 299 287 298 263 233 239 255 278 278 256 264 276 266 275 283 300 298 27 350 343 341 343 338 2 351 32 113 231 26 134 192 25 58 11 356 326 346 341
335 333 330 326 324 323 320 314 312 312 311 311 312 311 306 294 294 270 286 289 281 255 278 273 289 304 259 238 243 248 274 255 233 350 255 276 346 354 6 2 311 356 34 34 40 333 337 259 7 1 358 353 349 352
338 335 333 331 329 325 324 320 316 314 313 314 316 313 307 289 283 269 272 280 263 277 274 288 273 297 288 269 261 272 267 263 274 312 318 313 295 344 282 277 268 254 339 328 347 333 353 282 344 343 350 359 4 358
340 338 339 338 334 330 329 326 323 318 317 318 317 317 302 295 279 279 267 273 259 229 274 291 305 107 310 242 226 227 240 245 258 229 114 249 263 330 317 327 255 216 219 80 225 303 260 305 327 340 347 355 359 352
343 342 345 345 340 336 335 334 330 326 322 319 319 316 309 296 290 265 246 244 246 215 269 292 309 295 353 287 219 214 231 236 219 199 203 221 221 180 277 268 267 234 289 327 301 321 318 314 320 336 338 347 349 351
344 344 351 351 347 348 345 344 341 336 331 327 326 320 313 286 243 220 212 183 179 197 260 290 287 305 340 338 230 224 237 248 233 217 214 229 235 197 172 246 260 275 283 287 292 302 300 300 310 320 326 340 346 352
345 347 355 353 354 356 356 357 354 346 337 337 342 352 29 185 213 241 250 225 192 194 226 275 276 314 10 359 344 230 210 225 229 231 212 196 210 195 243 230 249 260 262 271 278 281 281 294 298 300 311 335 337 346
345 348 357 353 354 355 357 353 354 349 344 353 353 24 53 59 218 300 235 234 218 209 237 232 260 273 356 19 343 300 271 184 238 197 211 203 201 220 228 216 231 245 243 257 270 274 280 274 291 296 310 322 329 333
344 346 355 353 354 355 353 351 353 350 350 355 21 39 23 3 14 217 125 97 170 212 227 255 245 279 351 352 18 1 310 261 305 247 196 207 243 246 250 251 253 243 243 246 252 258 267 270 270 280 292 300 311 317
343 343 347 348 349 352 354 354 354 353 1 18 21 40 341 41 318 344 67 209 235 251 225 251 235 256 294 270 281 178 295 301 262 301 215 254 272 242 253 249 249 246 243 242 245 254 259 268 278 276 277 284 300 305
341 342 343 346 350 353 356 356 355 358 7 26 13 23 331 336 349 293 310 268 228 270 227 204 253 222 256 255 263 238 266 214 253 333 251 255 262 278 290 289 280 277 248 241 244 248 255 258 253 261 268 274 285 295
339 341 338 337 342 345 354 353 356 4 12 21 14 14 336 350 336 20 332 305 282 204 213 212 218 238 235 228 278 291 275 255 334 252 262 261 286 283 275 271 268 268 254 247 238 239 250 254 251 250 259 263 273 284
334 338 331 334 342 343 354 353 357 3 14 20 8 9 23 7 339 320 307 302 322 215 187 174 208 221 190 148 345 265 293 284 278 268 265 290 305 309 315 285 245 235 239 239 240 243 252 243 243 242 248 259 269 271
339 340 331 334 332 336 350 357 3 5 26 38 21 22 352 327 336 328 338 340 353 328 143 155 238 56 34 35 336 294 293 272 302 279 266 318 345 360 11 22 191 214 227 237 251 255 235 219 223 230 254 264 263 264
346 346 343 345 351 338 341 352 2 11 22 44 37 358 340 356 360 14 9 5 8 24 186 189 198 237 84 127 334 347 336 331 273 322 326 1 357 16 30 39 37 250 228 236 247 212 196 193 213 233 246 247 248 251
340 336 333 348 353 3 342 345 358 12 30 49 343 12 19 354 346 16 23 17 11 3 1 13 17 30 307 358 342 333 11 4 30 26 10 52 30 28 33 43 50 61 82 113 146 167 174 184 192 173 169 165 212 228
341 327 336 352 352 310 323 349 358 0 19 34 24 28 47 46 44 40 37 34 32 17 11 32 352 24 20 21 22 354 21 39 45 35 27 30 31 34 34 37 45 44 50 62 90 99 100 116 117 107 115 118 125 148
344 338 331 336 339 336 299 243 222 230 271 65 97 88 75 66 61 60 53 48 49 50 42 42 55 12 346 341 347 0 18 26 27 38 47 45 50 45 44 43 47 52 53 47 52 52 76 90 93 97 105 111 75 65
350 344 324 335 355 3 343 347 295 279 183 169 141 98 83 73 70 65 60 51 49 45 38 35 17 12 25 33 42 39 43 56 55 57 50 50 50 49 44 43 40 44 55 54 57 48 60 71 70 68 81 91 98 80
348 360 19 24 36 31 25 358 22 19 7 306 226 37 80 69 54 47 43 45 47 29 19 3 20 46 53 50 50 54 65 67 66 60 57 55 51 49 44 38 43 46 44 42 44 52 45 54 54 72 87 85 89 91
4 9 28 42 21 328 31 360 357 12 90 63 62 61 83 6 4 10 31 46 42 22 14 23 44 52 48 42 42 46 59 63 62 60 56 48 45 48 49 46 42 39 33 34 40 45 48 56 64 67 59 61 121 149
348 349 5 352 307 295 314 349 48 55 99 118 120 96 227 221 323 32 53 10 7 26 28 38 61 58 33 32 36 38 46 65 62 61 63 64 57 49 45 47 46 44 40 33 24 25 38 52 68 76 78 81 90 91
13 18 7 4 360 315 319 24 17 55 52 19 99 103 72 64 32 71 45 355 7 21 17 33 45 55 51 50 53 48 53 68 83 70 58 59 60 57 49 45 43 43 39 37 41 42 12 30 44 80 78 82 81 75
16 14 9 17 13 344 343 353 38 51 39 18 59 72 51 48 63 58 357 286 320 357 12 34 50 54 55 57 59 54 51 50 69 69 58 54 53 47 46 44 44 42 38 38 36 39 46 54 66 77 83 83 82 82
64 342 36 7 308 3 334 344 1 29 57 71 56 75 66 85 84 167 253 298 338 8 22 41 53 68 60 57 56 48 50 46 39 44 39 36 43 47 44 40 39 37 35 36 37 41 50 50 62 86 88 91 87 88
116 272 312 292 301 310 303 298 15 65 66 70 62 66 79 73 144 239 336 7 15 20 42 85 68 75 71 65 59 56 38 20 24 32 33 29 34 44 40 34 29 19 9 20 21 32 51 52 51 56 65 71 68 65
194 217 197 2 296 279 285 341 57 60 126 134 108 79 136 165 198 170 51 18 359 351 133 92 48 14 27 44 40 30 27 21 13 17 30 32 28 21 18 14 16 13 32 45 60 56 56 65 63 67 63 68 66 58
218 212 226 288 281 285 18 97 135 107 145 148 128 170 166 121 131 93 31 9 352 177 166 147 91 343 354 15 7 3 12 15 17 24 27 22 15 16 13 18 23 37 55 53 61 56 51 52 57 58 56 53 47 34
234 188 196 227 199 195 185 151 142 137 126 118 101 111 112 126 108 17 335 338 141 93 149 157 143 357 17 12 3 1 9 21 27 28 27 24 21 14 20 28 46 48 38 36 41 46 48 53 56 50 43 52 64 59
180 180 201 199 212 168 145 129 123 122 128 122 134 139 146 154 101 91 81 125 44 16 351 346 45 35 15 16 19 9 6 22 34 26 21 23 24 24 23 24 28 27 22 26 43 58 66 73 72 70 68 60 53 55
195 194 180 142 129 153 152 147 140 142 154 152 154 169 164 186 172 172 197 324 349 347 339 354 354 15 7 18 20 8 358 32 31 15 23 23 26 24 19 21 31 43 46 51 57 58 55 54 56 55 45 44 42 37
221 175 156 125 143 178 191 172 168 136 165 187 197 182 190 196 196 184 187 353 327 356 40 28 295 253 2 22 25 26 51 37 29 26 22 22 27 30 21 23 30 38 37 30 30 28 32 37 35 31 26 22 16 12